This is the latest recevied weather packets stored in our database for station/object 9D9-WX. If no packets are shown the sender has not sent any weather packets the latest 10 day(s).
| Time | Temp. | Humidity | Pressure | Rain* | Wind** | Luminosity | Snow |
|---|---|---|---|---|---|---|---|
| 1777284034 | 6.67° C | 85% | 988.5 hPa | 0 mm | - | - | - |
| 1777283111 | 6.67° C | 79% | 988.3 hPa | 0 mm | - | - | - |
| 1777282226 | 6.67° C | 82% | 988.6 hPa | 0 mm | - | - | - |
| 1777281314 | 6.67° C | 82% | 988.6 hPa | 0 mm | - | - | - |
| 1777280427 | 7.22° C | 82% | 988.6 hPa | 0 mm | - | - | - |
| 1777279514 | 7.22° C | 77% | 987.8 hPa | 0 mm | - | - | - |
| 1777278626 | 7.22° C | 73% | 987.6 hPa | 0 mm | - | - | - |
| 1777277714 | 7.22° C | 73% | 987.6 hPa | 0 mm | - | - | - |
| 1777276831 | 7.22° C | 76% | 987.3 hPa | 0 mm | - | - | - |
| 1777275912 | 7.22° C | 68% | 987.8 hPa | 0 mm | - | - | - |
| 1777275026 | 7.78° C | 68% | 987.8 hPa | 0 mm | - | - | - |
| 1777274110 | 7.78° C | 68% | 987.8 hPa | 0 mm | - | - | - |
| 1777273232 | 7.78° C | 68% | 987.8 hPa | 0 mm | - | - | - |
| 1777272314 | 8.33° C | 63% | 988 hPa | 0 mm | - | - | - |
| 1777271427 | 8.33° C | 69% | 988.1 hPa | 0 mm | - | - | - |
| 1777270514 | 8.33° C | 69% | 988.1 hPa | 0 mm | - | - | - |
| 1777269631 | 8.33° C | 69% | 988.1 hPa | 0 mm | - | - | - |
| 1777268714 | 8.89° C | 67% | 987.6 hPa | 0 mm | - | - | - |
| 1777267826 | 8.89° C | 67% | 987.6 hPa | 0 mm | - | - | - |
| 1777266914 | 8.89° C | 67% | 987.6 hPa | 0 mm | - | - | - |
| 1777266032 | 9.44° C | 67% | 987.6 hPa | 0 mm | - | - | - |
| 1777265114 | 9.44° C | 60% | 987.1 hPa | 0 mm | - | - | - |
| 1777264227 | 9.44° C | 62% | 987 hPa | 0 mm | - | - | - |
| 1777263314 | 10° C | 62% | 987 hPa | 0 mm | - | - | - |
| 1777262430 | 10° C | 62% | 987 hPa | 0 mm | - | - | - |
* Rain latest hour (hover to see other rain measurements)
** Current wind speed in m/s (hover to see current wind gust speed)